Location: Newark
(41.2353°N, 79.5361°W)
Time: 23:09:29
(UTC+00:00)

N. Korean satellite - Visible Passes

Search period start: 20 January 2020 00:00
Search period end: 30 January 2020 00:00
Orbit: 454 x 508 km, 97.2° (Epoch: 20 January)

Date Brightness Start Highest point End Pass type
(mag) Time Alt. Az. Time Alt. Az. Time Alt. Az.
20 Jan 6.7 11:03:06 10° NNE 11:06:38 73° ESE 11:10:12 10° S visible
20 Jan 9.7 23:12:55 10° SW 23:15:14 17° W 23:17:34 10° NW visible
21 Jan 8.4 10:37:52 10° NNE 10:41:06 32° E 10:44:20 10° SSE visible
22 Jan 9.7 10:13:13 10° NE 10:15:28 16° E 10:17:44 10° SE visible
22 Jan 7.3 11:45:47 10° N 11:48:54 29° WNW 11:52:03 10° SW visible
23 Jan 6.5 11:19:58 10° N 11:23:29 65° WNW 11:27:04 10° SSW visible
23 Jan 10.3 23:31:41 10° W 23:32:14 10° W 23:32:48 10° W visible
24 Jan 7.3 10:54:30 10° NNE 10:58:01 55° E 11:01:34 10° S visible
24 Jan 9.4 23:03:51 10° SSW 23:06:33 22° W 23:09:15 10° NW visible
25 Jan 8.9 10:29:24 10° NE 10:32:26 25° E 10:35:31 10° SSE visible
25 Jan 8.0 12:03:06 10° NNW 12:05:40 19° WNW 12:08:16 10° WSW visible
26 Jan 10.0 10:05:07 10° ENE 10:06:47 13° E 10:08:28 10° ESE visible
26 Jan 7.0 11:36:59 10° N 11:40:19 38° WNW 11:43:42 10° SW visible
27 Jan 6.5 11:11:17 10° N 11:14:53 85° WNW 11:18:32 10° SSW visible
27 Jan 9.9 23:21:46 10° WSW 23:23:31 13° W 23:25:15 10° WNW visible
28 Jan 7.9 10:45:55 10° NNE 10:49:22 42° E 10:52:51 10° S visible
28 Jan 9.0 22:54:53 10° SSW 22:57:50 27° W 23:00:50 10° NW visible
29 Jan 9.3 10:20:59 10° NE 10:23:46 21° E 10:26:34 10° SE visible
29 Jan 7.7 11:54:09 10° NNW 11:57:06 24° WNW 12:00:03 10° SW visible
